Time,TemperatureF,DewpointF,PressureIn,WindDirection,WindDirectionDegrees,WindSpeedMPH,WindSpeedGustMPH,Humidity,HourlyPrecipIn,Conditions,Clouds,dailyrainin,SoftwareType,DateUTC
2013-08-14 00:02:00,62.1,58.5,29.95,ESE,117,0.0,0.0,88,0.00,,CLR,0.00,VWS V14.01,2013-08-14 07:02:00,
2013-08-14 00:07:00,61.6,58.0,29.95,ESE,117,0.0,0.0,88,0.00,,CLR,0.00,VWS V14.01,2013-08-14 07:07:00,
2013-08-14 00:12:00,61.2,57.6,29.95,ESE,117,0.0,0.0,88,0.00,,CLR,0.00,VWS V14.01,2013-08-14 07:12:00,
2013-08-14 00:17:00,60.9,57.6,29.96,ESE,117,0.0,0.0,89,0.00,,CLR,0.00,VWS V14.01,2013-08-14 07:17:00,
2013-08-14 00:22:00,60.5,57.2,29.95,ESE,117,0.0,0.0,89,0.00,,CLR,0.00,VWS V14.01,2013-08-14 07:22:00,
2013-08-14 00:27:00,60.2,57.3,29.95,ESE,117,0.0,0.0,90,0.00,,CLR,0.00,VWS V14.01,2013-08-14 07:27:00,
2013-08-14 00:32:00,60.0,57.1,29.95,ESE,117,0.0,0.0,90,0.00,,CLR,0.00,VWS V14.01,2013-08-14 07:32:00,
2013-08-14 00:37:00,59.7,56.8,29.95,ESE,117,0.0,0.0,90,0.00,,CLR,0.00,VWS V14.01,2013-08-14 07:37:00,
2013-08-14 00:42:00,59.5,56.9,29.95,ESE,117,0.0,0.0,91,0.00,,CLR,0.00,VWS V14.01,2013-08-14 07:42:00,
2013-08-14 00:47:00,59.5,56.9,29.95,ESE,117,0.0,0.0,91,0.00,,CLR,0.00,VWS V14.01,2013-08-14 07:47:00,
2013-08-14 00:52:00,59.2,56.6,29.95,ESE,117,0.0,0.0,91,0.00,,CLR,0.00,VWS V14.01,2013-08-14 07:52:00,
2013-08-14 00:57:00,58.9,56.3,29.95,ESE,117,0.0,0.0,91,0.00,,CLR,0.00,VWS V14.01,2013-08-14 07:57:00,
2013-08-14 01:02:00,58.7,56.1,29.95,ESE,117,0.0,0.0,91,0.00,,CLR,0.00,VWS V14.01,2013-08-14 08:02:00,
2013-08-14 01:07:00,58.4,55.8,29.95,ESE,117,0.0,0.0,91,0.00,,CLR,0.00,VWS V14.01,2013-08-14 08:07:00,
2013-08-14 01:12:00,58.2,55.9,29.95,ESE,117,0.0,0.0,92,0.00,,CLR,0.00,VWS V14.01,2013-08-14 08:12:00,
2013-08-14 01:17:00,58.0,55.7,29.95,ESE,117,0.0,0.0,92,0.00,,CLR,0.00,VWS V14.01,2013-08-14 08:17:00,
2013-08-14 01:22:00,57.9,55.6,29.96,ESE,117,0.0,0.0,92,0.00,,CLR,0.00,VWS V14.01,2013-08-14 08:22:00,
2013-08-14 01:27:00,57.8,55.5,29.96,ESE,117,0.0,0.0,92,0.00,,CLR,0.00,VWS V14.01,2013-08-14 08:27:00,
2013-08-14 01:32:00,57.7,55.4,29.96,ESE,117,0.0,0.0,92,0.00,,CLR,0.00,VWS V14.01,2013-08-14 08:32:00,
2013-08-14 01:37:00,57.4,55.1,29.96,ESE,117,0.0,0.0,92,0.00,,CLR,0.00,VWS V14.01,2013-08-14 08:37:00,
2013-08-14 01:42:00,57.2,54.9,29.96,ESE,117,0.0,0.0,92,0.00,,CLR,0.00,VWS V14.01,2013-08-14 08:42:00,
2013-08-14 01:47:00,57.2,55.2,29.95,ESE,117,0.0,0.0,93,0.00,,CLR,0.00,VWS V14.01,2013-08-14 08:47:00,
2013-08-14 01:52:00,57.1,55.1,29.96,ESE,117,0.0,0.0,93,0.00,,CLR,0.00,VWS V14.01,2013-08-14 08:52:00,
2013-08-14 01:57:00,56.9,54.9,29.96,ESE,117,0.0,0.0,93,0.00,,CLR,0.00,VWS V14.01,2013-08-14 08:57:00,
2013-08-14 02:02:00,56.7,54.7,29.96,ESE,117,0.0,0.0,93,0.00,,CLR,0.00,VWS V14.01,2013-08-14 09:02:00,
2013-08-14 02:07:00,56.8,54.8,29.96,ESE,117,0.0,0.0,93,0.00,,CLR,0.00,VWS V14.01,2013-08-14 09:07:00,
2013-08-14 02:12:00,56.7,54.7,29.96,ESE,117,0.0,0.0,93,0.00,,CLR,0.00,VWS V14.01,2013-08-14 09:12:00,
2013-08-14 02:17:00,56.5,54.5,29.96,ESE,117,0.0,0.0,93,0.00,,CLR,0.00,VWS V14.01,2013-08-14 09:17:00,
2013-08-14 02:22:00,56.5,54.5,29.96,ESE,117,0.0,0.0,93,0.00,,CLR,0.00,VWS V14.01,2013-08-14 09:22:00,
2013-08-14 02:27:00,56.4,54.4,29.96,ESE,117,0.0,0.0,93,0.00,,CLR,0.00,VWS V14.01,2013-08-14 09:27:00,
2013-08-14 02:32:00,56.3,54.3,29.96,ESE,117,0.0,0.0,93,0.00,,CLR,0.00,VWS V14.01,2013-08-14 09:32:00,
2013-08-14 02:37:00,56.3,54.6,29.96,ESE,117,0.0,0.0,94,0.00,,CLR,0.00,VWS V14.01,2013-08-14 09:37:00,
2013-08-14 02:42:00,56.1,54.4,29.96,ESE,117,0.0,0.0,94,0.00,,CLR,0.00,VWS V14.01,2013-08-14 09:42:00,
2013-08-14 02:47:00,56.1,54.4,29.96,ESE,117,0.0,0.0,94,0.00,,CLR,0.00,VWS V14.01,2013-08-14 09:47:00,
2013-08-14 02:52:00,56.1,54.4,29.96,ESE,117,0.0,0.0,94,0.00,,CLR,0.00,VWS V14.01,2013-08-14 09:52:00,
2013-08-14 02:57:00,56.0,54.3,29.97,ESE,117,0.0,0.0,94,0.00,,CLR,0.00,VWS V14.01,2013-08-14 09:57:00,
2013-08-14 03:02:00,55.9,54.2,29.96,ESE,117,0.0,0.0,94,0.00,,CLR,0.00,VWS V14.01,2013-08-14 10:02:00,
2013-08-14 03:07:00,55.7,54.0,29.97,ESE,117,0.0,0.0,94,0.00,,CLR,0.00,VWS V14.01,2013-08-14 10:07:00,
2013-08-14 03:12:00,55.5,53.8,29.97,ESE,117,0.0,0.0,94,0.00,,CLR,0.00,VWS V14.01,2013-08-14 10:12:00,
2013-08-14 03:17:00,55.5,53.8,29.97,ESE,117,0.0,0.0,94,0.00,,CLR,0.00,VWS V14.01,2013-08-14 10:17:00,
2013-08-14 03:22:00,55.5,53.8,29.97,ESE,117,0.0,0.0,94,0.00,,CLR,0.00,VWS V14.01,2013-08-14 10:22:00,
2013-08-14 03:27:00,55.3,53.6,29.97,ESE,117,0.0,0.0,94,0.00,,CLR,0.00,VWS V14.01,2013-08-14 10:27:00,
2013-08-14 03:32:00,55.2,53.5,29.97,ESE,117,0.0,0.0,94,0.00,,CLR,0.00,VWS V14.01,2013-08-14 10:32:00,
2013-08-14 03:37:00,55.2,53.5,29.97,ESE,117,0.0,0.0,94,0.00,,CLR,0.00,VWS V14.01,2013-08-14 10:37:00,
2013-08-14 03:42:00,55.2,53.5,29.97,ESE,117,0.0,0.0,94,0.00,,CLR,0.00,VWS V14.01,2013-08-14 10:42:00,
2013-08-14 03:47:00,55.1,53.4,29.96,ESE,117,0.0,0.0,94,0.00,,CLR,0.00,VWS V14.01,2013-08-14 10:47:00,
2013-08-14 03:52:00,55.0,53.3,29.96,ESE,117,0.0,0.0,94,0.00,,CLR,0.00,VWS V14.01,2013-08-14 10:52:00,
2013-08-14 03:57:00,55.0,53.3,29.96,ESE,117,0.0,0.0,94,0.00,,CLR,0.00,VWS V14.01,2013-08-14 10:57:00,
2013-08-14 04:02:00,55.1,53.4,29.96,ESE,117,0.0,0.0,94,0.00,,CLR,0.00,VWS V14.01,2013-08-14 11:02:00,
2013-08-14 04:07:00,54.8,53.1,29.96,ESE,117,0.0,0.0,94,0.00,,CLR,0.00,VWS V14.01,2013-08-14 11:07:00,
2013-08-14 04:12:00,54.7,53.0,29.97,ESE,117,0.0,0.0,94,0.00,,CLR,0.00,VWS V14.01,2013-08-14 11:12:00,
2013-08-14 04:17:00,54.5,52.8,29.97,ESE,117,0.0,0.0,94,0.00,,CLR,0.00,VWS V14.01,2013-08-14 11:17:00,
2013-08-14 04:22:00,54.3,52.6,29.97,ESE,117,0.0,0.0,94,0.00,,CLR,0.00,VWS V14.01,2013-08-14 11:22:00,
2013-08-14 04:27:00,54.2,52.5,29.96,ESE,117,0.0,0.0,94,0.00,,CLR,0.00,VWS V14.01,2013-08-14 11:27:00,
2013-08-14 04:32:00,54.3,52.9,29.96,ESE,117,0.0,0.0,95,0.00,,CLR,0.00,VWS V14.01,2013-08-14 11:32:00,
2013-08-14 04:37:00,54.4,53.0,29.96,ESE,117,0.0,0.0,95,0.00,,CLR,0.00,VWS V14.01,2013-08-14 11:37:00,
2013-08-14 04:42:00,54.4,52.7,29.96,ESE,117,0.0,0.0,94,0.00,,CLR,0.00,VWS V14.01,2013-08-14 11:42:00,
2013-08-14 04:47:00,54.4,53.0,29.96,ESE,117,0.0,0.0,95,0.00,,CLR,0.00,VWS V14.01,2013-08-14 11:47:00,
2013-08-14 04:52:00,54.5,53.1,29.96,ESE,117,0.0,0.0,95,0.00,,CLR,0.00,VWS V14.01,2013-08-14 11:52:00,
2013-08-14 04:57:00,54.7,53.3,29.96,ESE,117,0.0,0.0,95,0.00,,CLR,0.00,VWS V14.01,2013-08-14 11:57:00,
2013-08-14 05:02:00,54.8,53.4,29.96,ESE,117,0.0,0.0,95,0.00,,CLR,0.00,VWS V14.01,2013-08-14 12:02:00,
2013-08-14 05:07:00,54.7,53.3,29.96,ESE,117,0.0,0.0,95,0.00,,CLR,0.00,VWS V14.01,2013-08-14 12:07:00,
2013-08-14 05:12:00,54.7,53.3,29.96,ESE,117,0.0,0.0,95,0.00,,CLR,0.00,VWS V14.01,2013-08-14 12:12:00,
2013-08-14 05:17:00,54.6,53.2,29.96,ESE,117,0.0,0.0,95,0.00,,CLR,0.00,VWS V14.01,2013-08-14 12:17:00,
2013-08-14 05:22:00,54.6,53.2,29.96,ESE,117,0.0,0.0,95,0.00,,CLR,0.00,VWS V14.01,2013-08-14 12:22:00,
2013-08-14 05:27:00,54.7,53.3,29.96,ESE,117,0.0,0.0,95,0.00,,CLR,0.00,VWS V14.01,2013-08-14 12:27:00,
2013-08-14 05:32:00,54.6,53.2,29.96,ESE,117,0.0,0.0,95,0.00,,CLR,0.00,VWS V14.01,2013-08-14 12:32:00,
2013-08-14 05:37:00,54.6,53.2,29.96,ESE,117,0.0,0.0,95,0.00,,CLR,0.00,VWS V14.01,2013-08-14 12:37:00,
2013-08-14 05:42:00,54.6,53.2,29.96,ESE,117,0.0,0.0,95,0.00,,CLR,0.00,VWS V14.01,2013-08-14 12:42:00,
2013-08-14 05:47:00,54.5,53.1,29.96,ESE,117,0.0,0.0,95,0.00,,CLR,0.00,VWS V14.01,2013-08-14 12:47:00,
2013-08-14 05:52:00,54.5,53.1,29.96,ESE,117,0.0,0.0,95,0.00,,CLR,0.00,VWS V14.01,2013-08-14 12:52:00,
2013-08-14 05:57:00,54.5,53.1,29.96,ESE,117,0.0,0.0,95,0.00,,CLR,0.00,VWS V14.01,2013-08-14 12:57:00,
2013-08-14 06:02:00,54.5,53.1,29.96,ESE,117,0.0,0.0,95,0.00,,CLR,0.00,VWS V14.01,2013-08-14 13:02:00,
2013-08-14 06:07:00,54.5,53.1,29.97,ESE,117,0.0,0.0,95,0.00,,CLR,0.00,VWS V14.01,2013-08-14 13:07:00,
2013-08-14 06:12:00,54.6,53.2,29.96,ESE,117,0.0,0.0,95,0.00,,CLR,0.00,VWS V14.01,2013-08-14 13:12:00,
2013-08-14 06:17:00,54.5,53.1,29.96,ESE,117,0.0,0.0,95,0.00,,CLR,0.00,VWS V14.01,2013-08-14 13:17:00,
2013-08-14 06:22:00,54.4,53.0,29.97,ESE,117,0.0,0.0,95,0.00,,CLR,0.00,VWS V14.01,2013-08-14 13:22:00,
2013-08-14 06:27:00,54.3,52.9,29.97,ESE,117,0.0,0.0,95,0.00,,CLR,0.00,VWS V14.01,2013-08-14 13:27:00,
2013-08-14 06:32:00,54.3,52.9,29.96,ESE,117,0.0,0.0,95,0.00,,CLR,0.00,VWS V14.01,2013-08-14 13:32:00,
2013-08-14 06:37:00,54.5,53.1,29.97,ESE,117,0.0,0.0,95,0.00,,CLR,0.00,VWS V14.01,2013-08-14 13:37:00,
2013-08-14 06:42:00,54.5,53.1,29.97,ESE,117,0.0,0.0,95,0.00,,CLR,0.00,VWS V14.01,2013-08-14 13:42:00,
2013-08-14 06:47:00,54.6,53.2,29.97,ESE,117,0.0,0.0,95,0.00,,CLR,0.00,VWS V14.01,2013-08-14 13:47:00,
2013-08-14 06:52:00,55.0,53.6,29.97,ESE,117,0.0,0.0,95,0.00,,CLR,0.00,VWS V14.01,2013-08-14 13:52:00,
2013-08-14 06:57:00,55.1,53.7,29.96,ESE,117,0.0,0.0,95,0.00,,CLR,0.00,VWS V14.01,2013-08-14 13:57:00,
2013-08-14 07:02:00,55.4,54.0,29.97,ESE,117,0.0,0.0,95,0.00,,CLR,0.00,VWS V14.01,2013-08-14 14:02:00,
2013-08-14 07:07:00,55.7,54.6,29.97,ESE,117,0.0,0.0,96,0.00,,CLR,0.00,VWS V14.01,2013-08-14 14:07:00,
2013-08-14 07:12:00,55.9,54.8,29.97,ESE,117,0.0,0.0,96,0.00,,CLR,0.00,VWS V14.01,2013-08-14 14:12:00,
2013-08-14 07:17:00,56.2,55.1,29.97,ESE,117,0.0,0.0,96,0.00,,CLR,0.00,VWS V14.01,2013-08-14 14:17:00,
2013-08-14 07:22:00,56.4,55.3,29.97,ESE,117,0.0,0.0,96,0.00,,CLR,0.00,VWS V14.01,2013-08-14 14:22:00,
2013-08-14 07:27:00,56.6,55.2,29.96,ESE,117,0.0,0.0,95,0.00,,CLR,0.00,VWS V14.01,2013-08-14 14:27:00,
2013-08-14 07:32:00,56.7,55.3,29.96,ESE,117,0.0,0.0,95,0.00,,CLR,0.00,VWS V14.01,2013-08-14 14:32:00,
2013-08-14 07:37:00,56.8,55.4,29.96,ESE,117,0.0,0.0,95,0.00,,CLR,0.00,VWS V14.01,2013-08-14 14:37:00,
2013-08-14 07:42:00,57.0,55.6,29.96,ESE,117,0.0,0.0,95,0.00,,CLR,0.00,VWS V14.01,2013-08-14 14:42:00,
2013-08-14 07:47:00,57.4,56.0,29.96,ESE,117,0.0,0.0,95,0.00,,CLR,0.00,VWS V14.01,2013-08-14 14:47:00,
2013-08-14 07:52:00,57.5,56.1,29.97,ESE,117,0.0,0.0,95,0.00,,CLR,0.00,VWS V14.01,2013-08-14 14:52:00,
2013-08-14 07:57:00,57.8,56.4,29.96,ESE,117,0.0,0.0,95,0.00,,CLR,0.00,VWS V14.01,2013-08-14 14:57:00,
2013-08-14 08:02:00,58.1,56.4,29.96,ESE,117,0.0,0.0,94,0.00,,CLR,0.00,VWS V14.01,2013-08-14 15:02:00,
2013-08-14 08:07:00,58.2,56.5,29.97,East,98,0.0,0.0,94,0.00,,CLR,0.00,VWS V14.01,2013-08-14 15:07:00,
2013-08-14 08:11:00,58.4,56.7,29.96,ESE,110,0.0,0.0,94,0.00,,CLR,0.00,VWS V14.01,2013-08-14 15:11:00,
2013-08-14 08:16:00,58.7,57.0,29.95,SSW,194,0.0,0.0,94,0.00,,CLR,0.00,VWS V14.01,2013-08-14 15:16:00,
2013-08-14 08:21:00,58.9,56.9,29.95,SW,217,0.0,0.0,93,0.00,,CLR,0.00,VWS V14.01,2013-08-14 15:21:00,
2013-08-14 08:26:00,59.2,57.2,29.96,SW,217,0.0,0.0,93,0.00,,CLR,0.00,VWS V14.01,2013-08-14 15:26:00,
2013-08-14 08:31:00,59.5,57.5,29.97,SW,217,0.0,0.0,93,0.00,,CLR,0.00,VWS V14.01,2013-08-14 15:31:00,
2013-08-14 08:36:00,60.0,57.7,29.96,SSW,210,0.0,0.0,92,0.00,,CLR,0.00,VWS V14.01,2013-08-14 15:36:00,
2013-08-14 08:41:00,60.5,58.2,29.96,SSW,210,0.0,0.0,92,0.00,,CLR,0.00,VWS V14.01,2013-08-14 15:41:00,
2013-08-14 08:46:00,61.0,58.4,29.96,SSW,210,0.0,0.0,91,0.00,,CLR,0.00,VWS V14.01,2013-08-14 15:46:00,
2013-08-14 08:51:00,61.3,58.3,29.96,SSW,210,0.0,0.0,90,0.00,,CLR,0.00,VWS V14.01,2013-08-14 15:51:00,
2013-08-14 08:56:00,61.5,58.2,29.95,SSW,210,0.0,0.0,89,0.00,,CLR,0.00,VWS V14.01,2013-08-14 15:56:00,
2013-08-14 09:01:00,61.7,58.4,29.96,SSW,210,0.0,0.0,89,0.00,,CLR,0.00,VWS V14.01,2013-08-14 16:01:00,
2013-08-14 09:06:00,62.1,58.5,29.96,SSW,210,0.0,0.0,88,0.00,,CLR,0.00,VWS V14.01,2013-08-14 16:06:00,
2013-08-14 09:11:00,62.3,58.7,29.96,West,280,0.0,0.0,88,0.00,,CLR,0.00,VWS V14.01,2013-08-14 16:11:00,
2013-08-14 09:16:00,62.6,58.7,29.96,ENE,76,1.0,0.0,87,0.00,,CLR,0.00,VWS V14.01,2013-08-14 16:16:00,
2013-08-14 09:21:00,62.7,58.8,29.97,East,84,2.0,0.0,87,0.00,,CLR,0.00,VWS V14.01,2013-08-14 16:21:00,
2013-08-14 09:26:00,62.8,58.9,29.97,East,101,0.0,0.0,87,0.00,,CLR,0.00,VWS V14.01,2013-08-14 16:26:00,
2013-08-14 09:31:00,63.2,59.3,29.97,SE,135,0.0,0.0,87,0.00,,CLR,0.00,VWS V14.01,2013-08-14 16:31:00,
2013-08-14 09:36:00,63.5,58.9,29.96,SW,224,0.0,0.0,85,0.00,,CLR,0.00,VWS V14.01,2013-08-14 16:36:00,
2013-08-14 09:41:00,63.5,58.9,29.96,SSE,165,0.0,0.0,85,0.00,,CLR,0.00,VWS V14.01,2013-08-14 16:41:00,
2013-08-14 09:46:00,63.6,59.0,29.95,SSW,205,0.0,0.0,85,0.00,,CLR,0.00,VWS V14.01,2013-08-14 16:46:00,
2013-08-14 09:52:00,63.7,59.1,29.96,NW,313,1.0,0.0,85,0.00,,CLR,0.00,VWS V14.01,2013-08-14 16:52:00,
2013-08-14 09:57:00,64.2,59.3,29.95,SW,218,1.0,0.0,84,0.00,,CLR,0.00,VWS V14.01,2013-08-14 16:57:00,
2013-08-14 10:02:00,64.4,59.5,29.95,SSW,194,0.0,0.0,84,0.00,,CLR,0.00,VWS V14.01,2013-08-14 17:02:00,
2013-08-14 10:07:00,65.2,59.9,29.95,SSW,198,0.0,0.0,83,0.00,,CLR,0.00,VWS V14.01,2013-08-14 17:07:00,
2013-08-14 10:12:00,66.0,59.7,29.95,WNW,288,0.0,0.0,80,0.00,,CLR,0.00,VWS V14.01,2013-08-14 17:12:00,
2013-08-14 10:17:00,66.3,59.2,29.95,SSW,205,0.0,0.0,78,0.00,,CLR,0.00,VWS V14.01,2013-08-14 17:17:00,
2013-08-14 10:22:00,66.7,60.0,29.95,NW,309,4.0,0.0,79,0.00,,CLR,0.00,VWS V14.01,2013-08-14 17:22:00,
2013-08-14 10:27:00,67.8,60.3,29.95,NNE,17,2.0,0.0,77,0.00,,CLR,0.00,VWS V14.01,2013-08-14 17:27:00,
2013-08-14 10:32:00,68.6,60.4,29.94,SW,221,0.0,0.0,75,0.00,,CLR,0.00,VWS V14.01,2013-08-14 17:32:00,
2013-08-14 10:37:00,69.1,60.5,29.95,SW,233,0.0,0.0,74,0.00,,CLR,0.00,VWS V14.01,2013-08-14 17:37:00,
2013-08-14 10:42:00,69.3,60.7,29.94,SW,232,0.0,0.0,74,0.00,,CLR,0.00,VWS V14.01,2013-08-14 17:42:00,
2013-08-14 10:48:00,69.4,60.4,29.95,SSW,205,0.0,0.0,73,0.00,,CLR,0.00,VWS V14.01,2013-08-14 17:48:00,
2013-08-14 10:52:00,69.6,60.6,29.95,SSW,195,0.0,0.0,73,0.00,,CLR,0.00,VWS V14.01,2013-08-14 17:52:00,
2013-08-14 10:57:00,70.1,60.3,29.95,WSW,242,2.0,0.0,71,0.00,,CLR,0.00,VWS V14.01,2013-08-14 17:57:00,
2013-08-14 11:03:00,71.1,60.8,29.94,ESE,115,0.0,0.0,70,0.00,,CLR,0.00,VWS V14.01,2013-08-14 18:03:00,
2013-08-14 11:08:00,71.9,61.6,29.94,SSW,203,0.0,0.0,70,0.00,,CLR,0.00,VWS V14.01,2013-08-14 18:08:00,
2013-08-14 11:13:00,72.8,61.2,29.94,ENE,63,0.0,0.0,67,0.00,,CLR,0.00,VWS V14.01,2013-08-14 18:13:00,
2013-08-14 11:18:00,74.0,61.5,29.93,NW,326,0.0,0.0,65,0.00,,CLR,0.00,VWS V14.01,2013-08-14 18:18:00,
2013-08-14 11:23:00,74.9,60.1,29.93,NNE,15,0.0,0.0,60,0.00,,CLR,0.00,VWS V14.01,2013-08-14 18:23:00,
2013-08-14 11:28:00,75.7,60.4,29.94,WNW,292,3.0,0.0,59,0.00,,CLR,0.00,VWS V14.01,2013-08-14 18:28:00,
2013-08-14 11:33:00,76.5,60.2,29.93,West,269,3.0,0.0,57,0.00,,CLR,0.00,VWS V14.01,2013-08-14 18:33:00,
2013-08-14 11:38:00,76.9,59.5,29.94,North,10,2.0,0.0,55,0.00,,CLR,0.00,VWS V14.01,2013-08-14 18:38:00,
2013-08-14 11:43:00,76.7,58.8,29.93,NW,308,3.0,0.0,54,0.00,,CLR,0.00,VWS V14.01,2013-08-14 18:43:00,
2013-08-14 11:48:00,76.6,59.2,29.93,NNW,327,4.0,0.0,55,0.00,,CLR,0.00,VWS V14.01,2013-08-14 18:48:00,
2013-08-14 11:54:00,76.2,58.9,29.93,WNW,295,3.0,0.0,55,0.00,,CLR,0.00,VWS V14.01,2013-08-14 18:54:00,
2013-08-14 11:59:00,76.7,58.8,29.93,SW,234,4.0,0.0,54,0.00,,CLR,0.00,VWS V14.01,2013-08-14 18:59:00,
2013-08-14 12:04:00,77.3,59.9,29.93,West,259,1.0,0.0,55,0.00,,CLR,0.00,VWS V14.01,2013-08-14 19:04:00,
2013-08-14 12:12:00,77.4,59.0,29.93,WNW,295,4.0,0.0,53,0.00,,CLR,0.00,VWS V14.01,2013-08-14 19:12:00,
2013-08-14 12:17:00,77.2,59.3,29.93,NNE,13,2.0,0.0,54,0.00,,CLR,0.00,VWS V14.01,2013-08-14 19:17:00,
2013-08-14 12:22:00,77.8,59.3,29.93,NW,317,2.0,0.0,53,0.00,,CLR,0.00,VWS V14.01,2013-08-14 19:22:00,
2013-08-14 12:27:00,78.8,59.2,29.92,North,5,3.0,0.0,51,0.00,,CLR,0.00,VWS V14.01,2013-08-14 19:27:00,
2013-08-14 12:32:00,79.7,60.5,29.92,WNW,295,2.0,0.0,52,0.00,,CLR,0.00,VWS V14.01,2013-08-14 19:32:00,
2013-08-14 12:37:00,80.5,61.3,29.92,NW,306,0.0,0.0,52,0.00,,CLR,0.00,VWS V14.01,2013-08-14 19:37:00,
2013-08-14 12:42:00,80.7,59.8,29.92,NW,304,5.0,0.0,49,0.00,,CLR,0.00,VWS V14.01,2013-08-14 19:42:00,
2013-08-14 12:47:00,79.7,58.9,29.92,NW,310,5.0,0.0,49,0.00,,CLR,0.00,VWS V14.01,2013-08-14 19:47:00,
2013-08-14 12:52:00,79.8,60.1,29.92,ESE,105,0.0,0.0,51,0.00,,CLR,0.00,VWS V14.01,2013-08-14 19:52:00,
2013-08-14 12:57:00,80.0,59.1,29.92,NW,321,6.0,0.0,49,0.00,,CLR,0.00,VWS V14.01,2013-08-14 19:57:00,
2013-08-14 13:02:00,79.7,58.9,29.92,NW,315,2.0,0.0,49,0.00,,CLR,0.00,VWS V14.01,2013-08-14 20:02:00,
2013-08-14 13:07:00,79.9,59.0,29.92,North,355,1.0,0.0,49,0.00,,CLR,0.00,VWS V14.01,2013-08-14 20:07:00,
2013-08-14 13:12:00,80.7,58.0,29.92,West,275,2.0,0.0,46,0.00,,CLR,0.00,VWS V14.01,2013-08-14 20:12:00,
2013-08-14 13:17:00,80.5,57.8,29.92,NNE,30,2.0,0.0,46,0.00,,CLR,0.00,VWS V14.01,2013-08-14 20:17:00,
2013-08-14 13:22:00,80.5,58.4,29.92,WSW,241,3.0,0.0,47,0.00,,CLR,0.00,VWS V14.01,2013-08-14 20:22:00,
2013-08-14 13:28:00,79.9,57.3,29.92,NW,322,5.0,0.0,46,0.00,,CLR,0.00,VWS V14.01,2013-08-14 20:28:00,
2013-08-14 13:33:00,80.5,58.4,29.92,NW,315,4.0,0.0,47,0.00,,CLR,0.00,VWS V14.01,2013-08-14 20:33:00,
2013-08-14 13:38:00,81.5,58.1,29.92,West,273,0.0,0.0,45,0.00,,CLR,0.00,VWS V14.01,2013-08-14 20:38:00,
2013-08-14 13:43:00,81.5,58.1,29.92,NW,319,3.0,0.0,45,0.00,,CLR,0.00,VWS V14.01,2013-08-14 20:43:00,
2013-08-14 13:48:00,81.7,57.0,29.92,North,351,7.0,0.0,43,0.00,,CLR,0.00,VWS V14.01,2013-08-14 20:48:00,
2013-08-14 13:53:00,80.9,55.7,29.92,NNW,338,3.0,0.0,42,0.00,,CLR,0.00,VWS V14.01,2013-08-14 20:53:00,
2013-08-14 13:58:00,80.1,56.9,29.92,WSW,237,3.0,0.0,45,0.00,,CLR,0.00,VWS V14.01,2013-08-14 20:58:00,
2013-08-14 14:03:00,79.9,57.9,29.92,NW,326,2.0,0.0,47,0.00,,CLR,0.00,VWS V14.01,2013-08-14 21:03:00,
2013-08-14 14:08:00,79.9,58.5,29.92,NW,309,6.0,0.0,48,0.00,,CLR,0.00,VWS V14.01,2013-08-14 21:08:00,
2013-08-14 14:13:00,79.6,58.2,29.92,WNW,294,4.0,0.0,48,0.00,,CLR,0.00,VWS V14.01,2013-08-14 21:13:00,
2013-08-14 14:18:00,79.2,57.2,29.92,West,275,4.0,0.0,47,0.00,,CLR,0.00,VWS V14.01,2013-08-14 21:18:00,
2013-08-14 14:23:00,79.1,56.6,29.92,NNW,336,6.0,0.0,46,0.00,,CLR,0.00,VWS V14.01,2013-08-14 21:23:00,
2013-08-14 14:28:00,79.1,57.8,29.92,NNE,28,2.0,0.0,48,0.00,,CLR,0.00,VWS V14.01,2013-08-14 21:28:00,
2013-08-14 14:33:00,79.4,57.4,29.92,NNE,12,5.0,0.0,47,0.00,,CLR,0.00,VWS V14.01,2013-08-14 21:33:00,
2013-08-14 14:38:00,79.9,58.5,29.92,WNW,288,2.0,0.0,48,0.00,,CLR,0.00,VWS V14.01,2013-08-14 21:38:00,
2013-08-14 14:43:00,80.2,58.2,29.92,NW,304,2.0,0.0,47,0.00,,CLR,0.00,VWS V14.01,2013-08-14 21:43:00,
2013-08-14 14:48:00,80.7,59.8,29.92,SSE,160,0.0,0.0,49,0.00,,CLR,0.00,VWS V14.01,2013-08-14 21:48:00,
2013-08-14 14:53:00,80.7,59.8,29.92,West,278,1.0,0.0,49,0.00,,CLR,0.00,VWS V14.01,2013-08-14 21:53:00,
2013-08-14 14:58:00,80.8,59.3,29.92,NNE,22,1.0,0.0,48,0.00,,CLR,0.00,VWS V14.01,2013-08-14 21:58:00,
2013-08-14 15:03:00,80.8,59.3,29.92,NNE,28,0.0,0.0,48,0.00,,CLR,0.00,VWS V14.01,2013-08-14 22:03:00,
2013-08-14 15:08:00,80.9,58.8,29.92,NNW,335,0.0,0.0,47,0.00,,CLR,0.00,VWS V14.01,2013-08-14 22:08:00,
2013-08-14 15:13:00,81.3,58.6,29.92,WNW,290,1.0,0.0,46,0.00,,CLR,0.00,VWS V14.01,2013-08-14 22:13:00,
2013-08-14 15:18:00,81.4,58.7,29.92,ESE,109,1.0,0.0,46,0.00,,CLR,0.00,VWS V14.01,2013-08-14 22:18:00,
2013-08-14 15:23:00,81.0,61.7,29.92,East,97,0.0,0.0,52,0.00,,CLR,0.00,VWS V14.01,2013-08-14 22:23:00,
2013-08-14 15:28:00,80.5,63.4,29.91,East,100,1.0,0.0,56,0.00,,CLR,0.00,VWS V14.01,2013-08-14 22:28:00,
2013-08-14 15:33:00,79.4,62.9,29.92,ESE,115,6.0,0.0,57,0.00,,CLR,0.00,VWS V14.01,2013-08-14 22:33:00,
2013-08-14 15:38:00,78.3,63.3,29.92,ESE,111,3.0,0.0,60,0.00,,CLR,0.00,VWS V14.01,2013-08-14 22:38:00,
2013-08-14 15:43:00,77.5,63.9,29.92,East,101,3.0,0.0,63,0.00,,CLR,0.00,VWS V14.01,2013-08-14 22:43:00,
2013-08-14 15:48:00,77.2,63.6,29.92,ENE,78,7.0,0.0,63,0.00,,CLR,0.00,VWS V14.01,2013-08-14 22:48:00,
2013-08-14 15:53:00,76.6,63.5,29.92,ESE,102,2.0,0.0,64,0.00,,CLR,0.00,VWS V14.01,2013-08-14 22:53:00,
2013-08-14 15:58:00,76.3,63.2,29.92,ESE,116,2.0,0.0,64,0.00,,CLR,0.00,VWS V14.01,2013-08-14 22:58:00,
2013-08-14 16:03:00,75.7,62.2,29.92,East,80,7.0,0.0,63,0.00,,CLR,0.00,VWS V14.01,2013-08-14 23:03:00,
2013-08-14 16:08:00,75.1,61.7,29.92,East,85,4.0,0.0,63,0.00,,CLR,0.00,VWS V14.01,2013-08-14 23:08:00,
2013-08-14 16:14:00,74.4,61.4,29.92,ESE,117,5.0,0.0,64,0.00,,CLR,0.00,VWS V14.01,2013-08-14 23:14:00,
2013-08-14 16:19:00,73.9,61.4,29.92,East,98,2.0,0.0,65,0.00,,CLR,0.00,VWS V14.01,2013-08-14 23:19:00,
2013-08-14 16:24:00,73.7,61.2,29.93,East,95,1.0,0.0,65,0.00,,CLR,0.00,VWS V14.01,2013-08-14 23:24:00,
2013-08-14 16:29:00,73.4,60.9,29.93,SE,129,10.0,0.0,65,0.00,,CLR,0.00,VWS V14.01,2013-08-14 23:29:00,
2013-08-14 16:34:00,73.2,61.2,29.93,East,92,5.0,0.0,66,0.00,,CLR,0.00,VWS V14.01,2013-08-14 23:34:00,
2013-08-14 16:39:00,73.0,61.0,29.93,East,92,4.0,0.0,66,0.00,,CLR,0.00,VWS V14.01,2013-08-14 23:39:00,
2013-08-14 16:44:00,72.8,61.2,29.93,ESE,121,1.0,0.0,67,0.00,,CLR,0.00,VWS V14.01,2013-08-14 23:44:00,
2013-08-14 16:49:00,72.7,60.7,29.93,ESE,116,2.0,0.0,66,0.00,,CLR,0.00,VWS V14.01,2013-08-14 23:49:00,
2013-08-14 16:54:00,72.5,60.9,29.93,ESE,118,2.0,0.0,67,0.00,,CLR,0.00,VWS V14.01,2013-08-14 23:54:00,
2013-08-14 16:59:00,72.3,60.7,29.93,ESE,121,0.0,0.0,67,0.00,,CLR,0.00,VWS V14.01,2013-08-14 23:59:00,
2013-08-14 17:04:00,72.0,60.9,29.93,ESE,109,0.0,0.0,68,0.00,,FEW110,0.00,VWS V14.01,2013-08-15 00:04:00,
2013-08-14 17:09:00,71.7,60.6,29.93,East,100,1.0,0.0,68,0.00,,FEW110,0.00,VWS V14.01,2013-08-15 00:09:00,
2013-08-14 17:14:00,71.4,60.7,29.94,ESE,102,2.0,0.0,69,0.00,,FEW110,0.00,VWS V14.01,2013-08-15 00:14:00,
2013-08-14 17:19:00,71.1,60.4,29.94,ESE,113,1.0,0.0,69,0.00,,FEW110,0.00,VWS V14.01,2013-08-15 00:19:00,
2013-08-14 17:24:00,70.9,60.2,29.94,ESE,116,1.0,0.0,69,0.00,,FEW120,0.00,VWS V14.01,2013-08-15 00:24:00,
2013-08-14 17:29:00,70.7,60.0,29.93,East,100,1.0,0.0,69,0.00,,FEW120,0.00,VWS V14.01,2013-08-15 00:29:00,
2013-08-14 17:34:00,70.5,60.3,29.93,ESE,113,3.0,0.0,70,0.00,,FEW120,0.00,VWS V14.01,2013-08-15 00:34:00,
2013-08-14 17:39:00,70.2,61.2,29.93,West,263,0.0,0.0,73,0.00,,FEW120,0.00,VWS V14.01,2013-08-15 00:39:00,
2013-08-14 17:44:00,69.8,61.2,29.92,South,178,0.0,0.0,74,0.00,,SCT120,0.00,VWS V14.01,2013-08-15 00:44:00,
2013-08-14 17:49:00,69.3,61.8,29.92,ESE,108,3.0,0.0,77,0.00,,SCT120,0.00,VWS V14.01,2013-08-15 00:49:00,
2013-08-14 17:54:00,68.8,61.7,29.93,ESE,107,0.0,0.0,78,0.00,,SCT120,0.00,VWS V14.01,2013-08-15 00:54:00,
2013-08-14 17:59:00,68.5,61.0,29.93,ENE,76,1.0,0.0,77,0.00,,SCT120,0.00,VWS V14.01,2013-08-15 00:59:00,
2013-08-14 18:04:00,68.3,60.8,29.93,SE,125,3.0,0.0,77,0.00,,BKN080,0.00,VWS V14.01,2013-08-15 01:04:00,
2013-08-14 18:09:00,67.9,60.8,29.94,ESE,103,2.0,0.0,78,0.00,,BKN080,0.00,VWS V14.01,2013-08-15 01:09:00,
2013-08-14 18:14:00,67.8,60.7,29.94,ESE,110,3.0,0.0,78,0.00,,BKN080,0.00,VWS V14.01,2013-08-15 01:14:00,
2013-08-14 18:19:00,67.5,61.1,29.94,South,180,0.0,0.0,80,0.00,,BKN080,0.00,VWS V14.01,2013-08-15 01:19:00,
2013-08-14 18:24:00,67.3,60.9,29.94,ESE,103,0.0,0.0,80,0.00,,SCT110,0.00,VWS V14.01,2013-08-15 01:24:00,
2013-08-14 18:29:00,67.0,61.0,29.94,ESE,109,1.0,0.0,81,0.00,,SCT110,0.00,VWS V14.01,2013-08-15 01:29:00,
2013-08-14 18:34:00,66.7,61.0,29.94,ESE,109,2.0,0.0,82,0.00,,SCT110,0.00,VWS V14.01,2013-08-15 01:34:00,
2013-08-14 18:39:00,66.5,60.8,29.95,East,101,0.0,0.0,82,0.00,,SCT110,0.00,VWS V14.01,2013-08-15 01:39:00,
2013-08-14 18:44:00,66.4,61.1,29.94,ESE,102,0.0,0.0,83,0.00,,BKN120,0.00,VWS V14.01,2013-08-15 01:44:00,
2013-08-14 18:49:00,66.2,60.9,29.94,ESE,113,0.0,0.0,83,0.00,,BKN120,0.00,VWS V14.01,2013-08-15 01:49:00,
2013-08-14 18:54:00,66.1,60.8,29.95,ESE,113,0.0,0.0,83,0.00,,BKN120,0.00,VWS V14.01,2013-08-15 01:54:00,
2013-08-14 18:59:00,65.9,60.9,29.95,NNW,335,0.0,0.0,84,0.00,,BKN120,0.00,VWS V14.01,2013-08-15 01:59:00,
2013-08-14 19:04:00,65.5,60.9,29.95,SE,133,0.0,0.0,85,0.00,,BKN120,0.00,VWS V14.01,2013-08-15 02:04:00,
2013-08-14 19:09:00,65.1,60.8,29.95,East,90,4.0,0.0,86,0.01,,BKN120,0.01,VWS V14.01,2013-08-15 02:09:00,
2013-08-14 19:14:00,64.8,60.8,29.95,ESE,105,2.0,0.0,87,0.01,,BKN120,0.01,VWS V14.01,2013-08-15 02:14:00,
2013-08-14 19:19:00,64.7,60.8,29.95,East,86,0.0,0.0,87,0.01,,BKN120,0.01,VWS V14.01,2013-08-15 02:19:00,
2013-08-14 19:24:00,64.6,61.0,29.95,ESE,119,1.0,0.0,88,0.01,,OVC100,0.01,VWS V14.01,2013-08-15 02:24:00,
2013-08-14 19:29:00,64.5,60.9,29.95,ESE,120,0.0,0.0,88,0.01,,OVC100,0.01,VWS V14.01,2013-08-15 02:29:00,
2013-08-14 19:34:00,64.4,60.8,29.94,SW,215,0.0,0.0,88,0.01,,OVC100,0.01,VWS V14.01,2013-08-15 02:34:00,
2013-08-14 19:39:00,64.3,61.0,29.95,SE,135,0.0,0.0,89,0.01,,OVC100,0.01,VWS V14.01,2013-08-15 02:39:00,
2013-08-14 19:44:00,64.3,61.0,29.94,SE,136,0.0,0.0,89,0.01,,OVC100,0.01,VWS V14.01,2013-08-15 02:44:00,
2013-08-14 19:49:00,64.2,60.9,29.94,SE,136,0.0,0.0,89,0.01,,OVC100,0.01,VWS V14.01,2013-08-15 02:49:00,
2013-08-14 19:54:00,64.1,61.1,29.94,SE,136,0.0,0.0,90,0.01,,OVC100,0.01,VWS V14.01,2013-08-15 02:54:00,
2013-08-14 19:59:00,64.1,61.1,29.93,SE,136,0.0,0.0,90,0.02,,OVC100,0.02,VWS V14.01,2013-08-15 02:59:00,
2013-08-14 20:04:00,64.0,61.0,29.94,SSE,163,0.0,0.0,90,0.02,,BKN120,0.02,VWS V14.01,2013-08-15 03:04:00,
2013-08-14 20:09:00,63.9,60.9,29.93,SSE,164,0.0,0.0,90,0.01,,BKN120,0.02,VWS V14.01,2013-08-15 03:09:00,
2013-08-14 20:14:00,63.8,61.1,29.93,SSE,165,0.0,0.0,91,0.01,,BKN120,0.02,VWS V14.01,2013-08-15 03:14:00,
2013-08-14 20:19:00,63.7,61.0,29.93,SSE,164,0.0,0.0,91,0.01,,BKN120,0.02,VWS V14.01,2013-08-15 03:19:00,
2013-08-14 20:24:00,63.6,60.9,29.92,SSE,166,0.0,0.0,91,0.01,,BKN085,0.02,VWS V14.01,2013-08-15 03:24:00,
2013-08-14 20:29:00,63.6,60.9,29.93,ENE,68,2.0,0.0,91,0.01,,BKN085,0.02,VWS V14.01,2013-08-15 03:29:00,
2013-08-14 20:34:00,63.6,61.2,29.93,NE,47,1.0,0.0,92,0.01,,BKN085,0.02,VWS V14.01,2013-08-15 03:34:00,
2013-08-14 20:39:00,63.6,61.2,29.93,NE,44,0.0,0.0,92,0.01,,BKN085,0.02,VWS V14.01,2013-08-15 03:39:00,
2013-08-14 20:44:00,63.6,61.2,29.94,NE,44,0.0,0.0,92,0.01,,BKN120,0.02,VWS V14.01,2013-08-15 03:44:00,
2013-08-14 20:49:00,63.6,61.2,29.94,NE,44,0.0,0.0,92,0.01,,BKN120,0.02,VWS V14.01,2013-08-15 03:49:00,
2013-08-14 20:54:00,63.6,61.2,29.94,NE,44,0.0,0.0,92,0.01,,BKN120,0.02,VWS V14.01,2013-08-15 03:54:00,
2013-08-14 20:59:00,63.5,61.1,29.93,NE,44,0.0,0.0,92,0.00,,BKN120,0.02,VWS V14.01,2013-08-15 03:59:00,
2013-08-14 21:01:00,63.4,61.0,29.94,NE,44,0.0,0.0,92,0.00,,BKN120,0.02,VWS V14.01,2013-08-15 04:01:00,
2013-08-14 21:06:00,63.4,61.0,29.94,NE,44,0.0,0.0,92,0.00,,FEW120,0.02,VWS V14.01,2013-08-15 04:06:00,
2013-08-14 21:11:00,63.3,60.9,29.94,NE,44,0.0,0.0,92,0.00,,FEW120,0.02,VWS V14.01,2013-08-15 04:11:00,
2013-08-14 21:16:00,63.3,60.9,29.94,NE,44,0.0,0.0,92,0.00,,FEW120,0.02,VWS V14.01,2013-08-15 04:16:00,
2013-08-14 21:21:00,63.3,60.9,29.94,ENE,57,0.0,0.0,92,0.00,,FEW120,0.02,VWS V14.01,2013-08-15 04:21:00,
2013-08-14 21:26:00,63.4,61.3,29.95,ESE,113,0.0,0.0,93,0.00,,BKN110,0.02,VWS V14.01,2013-08-15 04:26:00,
2013-08-14 21:31:00,63.4,61.0,29.95,ESE,113,0.0,0.0,92,0.00,,BKN110,0.02,VWS V14.01,2013-08-15 04:31:00,
2013-08-14 21:36:00,63.4,61.0,29.95,ESE,113,0.0,0.0,92,0.00,,BKN110,0.02,VWS V14.01,2013-08-15 04:36:00,
2013-08-14 21:41:00,63.3,61.2,29.95,ESE,117,0.0,0.0,93,0.00,,BKN110,0.02,VWS V14.01,2013-08-15 04:41:00,
2013-08-14 21:46:00,63.4,61.3,29.95,South,188,1.0,0.0,93,0.00,,BKN120,0.02,VWS V14.01,2013-08-15 04:46:00,
2013-08-14 21:51:00,63.4,61.3,29.95,SW,227,0.0,0.0,93,0.00,,BKN120,0.02,VWS V14.01,2013-08-15 04:51:00,
2013-08-14 21:56:00,63.3,61.2,29.94,SW,228,0.0,0.0,93,0.00,,BKN120,0.02,VWS V14.01,2013-08-15 04:56:00,
2013-08-14 22:01:00,63.3,61.2,29.94,SW,227,0.0,0.0,93,0.00,,BKN120,0.02,VWS V14.01,2013-08-15 05:01:00,
2013-08-14 22:06:00,63.3,61.2,29.94,SW,228,0.0,0.0,93,0.00,,SCT120,0.02,VWS V14.01,2013-08-15 05:06:00,
2013-08-14 22:11:00,63.3,61.2,29.94,SW,227,0.0,0.0,93,0.00,,SCT120,0.02,VWS V14.01,2013-08-15 05:11:00,
2013-08-14 22:16:00,63.3,61.2,29.94,SSE,150,0.0,0.0,93,0.00,,SCT120,0.02,VWS V14.01,2013-08-15 05:16:00,
2013-08-14 22:21:00,63.2,61.2,29.94,SSE,150,0.0,0.0,93,0.00,,SCT120,0.02,VWS V14.01,2013-08-15 05:21:00,
2013-08-14 22:26:00,63.3,61.2,29.94,SSE,151,0.0,0.0,93,0.00,,FEW120,0.02,VWS V14.01,2013-08-15 05:26:00,
2013-08-14 22:31:00,63.3,61.2,29.94,SSE,150,0.0,0.0,93,0.00,,FEW120,0.02,VWS V14.01,2013-08-15 05:31:00,
2013-08-14 22:36:00,63.3,61.2,29.94,SSE,150,0.0,0.0,93,0.00,,FEW120,0.02,VWS V14.01,2013-08-15 05:36:00,
2013-08-14 22:41:00,63.2,61.2,29.94,SSE,150,0.0,0.0,93,0.00,,FEW120,0.02,VWS V14.01,2013-08-15 05:41:00,
2013-08-14 22:46:00,63.2,61.2,29.93,SSE,150,0.0,0.0,93,0.00,,BKN120,0.02,VWS V14.01,2013-08-15 05:46:00,
2013-08-14 22:51:00,63.2,61.2,29.93,SSE,150,0.0,0.0,93,0.00,,BKN120,0.02,VWS V14.01,2013-08-15 05:51:00,
2013-08-14 22:56:00,63.2,61.2,29.93,SSE,150,0.0,0.0,93,0.00,,BKN120,0.02,VWS V14.01,2013-08-15 05:56:00,
2013-08-14 23:01:00,63.3,61.2,29.93,ENE,67,2.0,0.0,93,0.00,,BKN120,0.02,VWS V14.01,2013-08-15 06:01:00,
2013-08-14 23:06:00,63.5,61.8,29.95,ESE,105,4.0,0.0,94,0.00,,BKN120,0.02,VWS V14.01,2013-08-15 06:06:00,
2013-08-14 23:11:00,63.5,61.4,29.95,ESE,107,4.0,0.0,93,0.00,,BKN120,0.02,VWS V14.01,2013-08-15 06:11:00,
2013-08-14 23:16:00,63.3,61.2,29.94,East,99,1.0,0.0,93,0.00,,BKN120,0.02,VWS V14.01,2013-08-15 06:16:00,
2013-08-14 23:21:00,63.2,61.2,29.94,ESE,108,0.0,0.0,93,0.00,,BKN120,0.02,VWS V14.01,2013-08-15 06:21:00,
2013-08-14 23:26:00,63.1,61.0,29.95,ESE,107,0.0,0.0,93,0.00,,BKN120,0.02,VWS V14.01,2013-08-15 06:26:00,
2013-08-14 23:31:00,63.1,61.0,29.94,SSE,161,0.0,0.0,93,0.00,,BKN120,0.02,VWS V14.01,2013-08-15 06:31:00,
2013-08-14 23:36:00,63.0,61.0,29.94,SSE,162,0.0,0.0,93,0.00,,BKN120,0.02,VWS V14.01,2013-08-15 06:36:00,
2013-08-14 23:41:00,62.9,60.8,29.94,SSE,161,0.0,0.0,93,0.00,,BKN120,0.02,VWS V14.01,2013-08-15 06:41:00,
2013-08-14 23:46:00,62.9,60.8,29.94,SSE,160,0.0,0.0,93,0.00,,SCT080,0.02,VWS V14.01,2013-08-15 06:46:00,
2013-08-14 23:51:00,62.9,60.8,29.94,SSE,160,0.0,0.0,93,0.00,,SCT080,0.02,VWS V14.01,2013-08-15 06:51:00,
2013-08-14 23:56:00,62.9,60.8,29.94,SSE,160,0.0,0.0,93,0.00,,SCT080,0.02,VWS V14.01,2013-08-15 06:56:00,